Regional Weather Roundup
Issued by NWS

Home | Current Version | Previous Version | Graphics & Text | Print | Product List | Glossary On
Versions: 1 2 3 4 5 6 7 8 9 10 11 12 13 14 15 16 17 18 19 20 21 22 23 24 25 26 27 28 29 30 31 32 33 34 35 36 37 38 39 40 41 42 43 44 45 46 47 48 49 50
000
ASUS45 KCYS 171210
RWRWY

WYOMING REGIONAL WEATHER ROUNDUP
NATIONAL WEATHER SERVICE CHEYENNE WY
600 AM MDT WED SEP 17 2014

NOTE:  "FAIR" INDICATES FEW OR NO CLOUDS BELOW 12,000 FEET
WITH NO SIGNIFICANT WEATHER AND/OR OBSTRUCTIONS TO VISIBILITY.

WYZ001-171300-
YELLOWSTONE NATIONAL PARK

CITY           SKY/WX    TMP DP  RH WIND       PRES   REMARKS
LK YELLOWSTONE   N/A     34  32  92 CALM      30.24S
6HR MIN TEMP:  34; 6HR MAX TEMP:  42;

W YELLOWSTONE  NOT AVBL

$$
WYZ002>013-054>058-071-098>099-171300-
NORTHERN WYOMING

CITY           SKY/WX    TMP DP  RH WIND       PRES   REMARKS
JACKSON        MOCLDY    43  39  87 N3        30.17S
CODY           PTCLDY    52  41  66 S6        30.05S
GREYBULL       PTCLDY    53  45  74 SW6       29.98S
6HR MIN TEMP:  53; 6HR MAX TEMP:  64; 6HR PCP: TRACE;

WORLAND        CLEAR     50  45  83 SW7       29.99S
6HR MIN TEMP:  49; 6HR MAX TEMP:  61;

SHERIDAN       LGT RAIN  65  47  52 NW8       29.96R
6HR MIN TEMP:  53; 6HR MAX TEMP:  66; 6HR PCP: TRACE;

BUFFALO        LGT RAIN  62  43  49 W5        30.03S
6HR MIN TEMP:  56; 6HR MAX TEMP:  68; 6HR PCP: TRACE;

GILLETTE       CLOUDY    64  37  36 VRB3      29.98S
6HR MIN TEMP:  53; 6HR MAX TEMP:  67;

HULETT         FAIR      54  36  50 MISG      30.00
NEWCASTLE      FAIR      50  36  57 N10       30.02

$$
WYZ014>020-022>026-101>103-171300-
CENTRAL WYOMING

CITY           SKY/WX    TMP DP  RH WIND       PRES   REMARKS
BIG PINEY      PTCLDY    41  34  76 N6        30.20S
6HR MIN TEMP:  39; 6HR MAX TEMP:  52;

PINEDALE       MOSUNNY   37  36  93 NW6       30.21R WCI  33
DUBOIS         FAIR      41  37  87 NW6       30.18S
LANDER         CLEAR     52  40  63 CALM      30.06F
6HR MIN TEMP:  50; 6HR MAX TEMP:  64;

RIVERTON       CLEAR     53  41  63 SW10      30.07S
6HR MIN TEMP:  53; 6HR MAX TEMP:  69;

CASPER         PTCLDY    55  37  50 W7        30.10R
6HR MIN TEMP:  52; 6HR MAX TEMP:  68; 6HR PCP: TRACE;

DOUGLAS        PTCLDY    49  40  71 CALM      30.06R
6HR MIN TEMP:  49; 6HR MAX TEMP:  65;


$$
WYZ021-027>030-104>119-171300-
SOUTHERN WYOMING

CITY           SKY/WX    TMP DP  RH WIND       PRES   REMARKS
EVANSTON       MOCLDY    57  36  45 SE6       30.18S
6HR MIN TEMP:  55; 6HR MAX TEMP:  60;

KEMMERER       SUNNY     45  37  76 N12       30.20S
FORT BRIDGER   FAIR      55  36  49 W7        30.20S
ROCK SPRINGS   PTCLDY    52  36  54 NE3       30.17S
6HR MIN TEMP:  51; 6HR MAX TEMP:  64;

DIXON          FAIR      47  39  72 NE5       30.22R
RAWLINS        CLEAR     49  34  56 SW3       30.18S
6HR MIN TEMP:  46; 6HR MAX TEMP:  66;

SARATOGA       FAIR      46  36  66 S5        30.22R
LARAMIE        CLEAR     44  34  67 SE7       30.21R
6HR MIN TEMP:  43; 6HR MAX TEMP:  53;

CHEYENNE       CLEAR     51  38  60 W10       30.12S
6HR MIN TEMP:  50; 6HR MAX TEMP:  65;

TORRINGTON     PTCLDY    53  44  71 NW7       29.99S
6HR MIN TEMP:  50; 6HR MAX TEMP:  60;

PINE BLUFFS    FAIR      46  37  71 W5        30.07S

$$


USA.gov is the U.S. government's official web portal to all federal, state and local government web resources and services.